カタログに戻る

GEESAT 2-07

運用中科学LEO
NORAD 58911·PAYLOAD·🇨🇳 China

打ち上げ Feb 2, 2024 から Xichang Satellite Launch Center

Loading…

次のパス (今後24時間)

TLE

最新Source: Space-Track

元期: Sep 14, 2026, 13:58 UTC

1 58911U 24023G   26257.58195746  .00000929  00000-0  13939-3 0  9990
2 58911  50.0063 300.7241 0009665  40.6161 319.5497 14.83421056142189

AllMySatでGEESAT 2-07をリアルタイム追跡

Download on the App Store